Regional Weather Roundup
Issued by NWS

Home | Current Version | Previous Version | Text Only | Print | Product List | Glossary On
Versions: 1 2 3 4 5 6 7 8 9 10 11 12 13 14 15 16 17 18 19 20 21 22 23 24 25 26 27 28 29 30 31 32 33 34 35 36 37 38 39 40 41 42 43 44 45 46 47 48 49 50
000
ASUS43 KBIS 302110
RWRND

NORTH DAKOTA REGIONAL WEATHER ROUNDUP
NATIONAL WEATHER SERVICE BISMARCK ND
400 PM CDT THU OCT 30 2014

NOTE: "FAIR" INDICATES FEW OR NO CLOUDS BELOW 12,000 FEET WITH NO
SIGNIFICANT WEATHER AND/OR OBSTRUCTIONS TO VISIBILITY.


NDZ001>003-009>011-017-302200-
NORTHWEST NORTH DAKOTA

CITY           SKY/WX    TMP DP  RH WIND       PRES   REMARKS
WILLISTON      CLOUDY    38  31  76 NE7       30.46R
MINOT          CLOUDY    33  23  66 N12       30.48R
MINOT AFB      CLOUDY    32  24  71 N10       30.48R
$$

NDZ018>021-031>035-040>046-302200-
SOUTHWEST NORTH DAKOTA

CITY           SKY/WX    TMP DP  RH WIND       PRES   REMARKS
BISMARCK       CLOUDY    37  30  75 N7        30.44R
DICKINSON      CLOUDY    37  30  75 NE7       30.40R
GARRISON         N/A     34  27  75 NE12      30.45R
HETTINGER ARPT CLOUDY    38  29  70 N9        30.41S
$$

NDZ004>008-012>016-024-026-027-054-302200-
NORTHEAST NORTH DAKOTA

CITY           SKY/WX    TMP DP  RH WIND       PRES   REMARKS
GRAND FORKS    PTSUNNY   39  21  48 N23G32    30.38R
GRND FRKS AFB  MOSUNNY   37  18  45 N23G30    30.39R
DEVILS LAKE    MOSUNNY   36  16  44 N21G26    30.41R
$$

NDZ022-023-025-028>030-036>039-047>053-302200-
SOUTHEAST NORTH DAKOTA

CITY           SKY/WX    TMP DP  RH WIND       PRES   REMARKS
FARGO          CLOUDY    37  26  64 N25G35    30.35R
JAMESTOWN      CLOUDY    35  24  64 N21       30.39R
$$




USA.gov is the U.S. government's official web portal to all federal, state and local government web resources and services.